Location: Allie Creek
(37.5926°N, 89.8526°W)
Time: 21:04:39
(UTC+00:00)

Tiangong - Visible Passes

Search period start: 19 January 2026 00:00
Search period end: 29 January 2026 00:00
Orbit: 378 x 393 km, 41.5° (Epoch: 19 January)

Date Brightness Start Highest point End Pass type
(mag) Time Alt. Az. Time Alt. Az. Time Alt. Az.
19 Jan -2.2 11:57:04 29° WSW 11:58:33 84° NNW 12:01:45 10° ENE visible
20 Jan 0.2 11:00:51 25° E 11:00:51 25° E 11:02:22 10° ENE visible
20 Jan -1.6 12:33:06 10° W 12:36:09 44° N 12:39:15 10° ENE visible
21 Jan -2.0 11:36:42 56° NNW 11:36:42 56° NNW 11:39:49 10° ENE visible
22 Jan 1.3 10:40:11 11° ENE 10:40:11 11° ENE 10:40:24 10° ENE visible
22 Jan -1.3 12:12:25 19° WNW 12:14:17 39° N 12:17:19 10° ENE visible
23 Jan -0.5 11:15:48 30° NE 11:15:48 30° NE 11:17:46 10° ENE visible
24 Jan -1.3 11:51:21 31° NW 11:52:15 39° N 11:55:17 10° ENE visible
25 Jan 0.6 10:54:36 17° ENE 10:54:36 17° ENE 10:55:36 10° ENE visible
25 Jan -1.9 12:26:49 12° WNW 12:29:42 60° NNE 12:32:52 10° E visible
26 Jan -1.5 11:30:03 45° N 11:30:03 45° N 11:33:08 10° E visible
27 Jan 1.5 10:33:15 10° ENE 10:33:15 10° ENE 10:33:19 10° ENE visible
27 Jan -2.2 12:05:28 22° WNW 12:07:20 88° SW 12:10:31 10° ESE visible
28 Jan -0.6 11:08:40 37° E 11:08:40 37° E 11:10:47 10° E visible
